Regional Weather Roundup
Issued by NWS

Home | Current Version | Previous Version | Text Only | Print | Product List | Glossary Off
Versions: 1 2 3 4 5 6 7 8 9 10 11 12 13 14 15 16 17 18 19 20 21 22 23 24 25 26 27 28 29 30 31 32 33 34 35 36 37 38 39 40 41 42 43 44 45 46 47 48 49 50

000
ASUS43 KLMK 281010
RWRKY
KENTUCKY REGIONAL WEATHER ROUNDUP
NATIONAL WEATHER SERVICE LOUISVILLE KY
500 AM EST SUN DEC 28 2014

NOTE "FAIR" INDICATES FEW OR NO CLOUDS BELOW 12,000 FEET
WITH NO SIGNIFICANT WEATHER AND/OR OBSTRUCTIONS TO VISIBILITY.

KYZ001>023-026-027-061>063-070>075-281100-
WESTERN AND SOUTH CENTRAL KENTUCKY

CITY           SKY/WX    TMP DP  RH WIND       PRES   REMARKS
PADUCAH        CLOUDY    37  35  92 N7        30.18R WCI  32
HENDERSON      CLOUDY    36  32  87 NW10      30.16F WCI  28
OWENSBORO      CLOUDY    38  35  89 N9        30.15S WCI  31
HOPKINSVILLE   MIX PCPN  39  37  93 N8        30.14R WCI  34
BOWLING GREEN  LGT RAIN  42  39  89 NW10      30.10R FOG
GLASGOW        RAIN      47  47 100 W7        30.07S
$$

KYZ024-025-028>034-038-045-046-053-281100-
NORTH CENTRAL KENTUCKY

CITY           SKY/WX    TMP DP  RH WIND       PRES   REMARKS
LOUISVILLE/SDF LGT RAIN  40  38  93 NW7       30.10S FOG
LOUISVILLE/LOU CLOUDY    40  39  97 NW7       30.11R FOG
FORT KNOX      CLOUDY    37  37 100 NW10      30.10S FOG     WCI  30
$$

KYZ035>037-039>044-047>052-055>060-089>105-281100-
NORTHEAST KENTUCKY

CITY           SKY/WX    TMP DP  RH WIND       PRES   REMARKS
LEXINGTON      CLOUDY    47  46  97 W6        30.04S
COVINGTON      CLOUDY    38  33  82 N9        30.07R HAZE    WCI  31
FRANKFORT      CLOUDY    40  38  93 NW9       30.07R FOG     WCI  34
$$

KYZ054-064>069-076>088-106>120-281100-
SOUTHEAST KENTUCKY

CITY           SKY/WX    TMP DP  RH WIND       PRES   REMARKS
JACKSON        FOG       46  44  93 CALM      30.03F VSB 1/4
LONDON         CLOUDY    47  43  86 CALM      30.05S FOG
SOMERSET       CLOUDY    45  45 100 CALM      30.06S FOG
MIDDLESBORO    DRIZZLE   47  47 100 CALM      30.04F
MONTICELLO     CLOUDY    48  48 100 CALM      30.08S FOG
$$




USA.gov is the U.S. government's official web portal to all federal, state and local government web resources and services.